Year,Month,Day,Hour,Minute,Value (Times are PST for temperature in C)
2015,06,22,00,00,18.70
2015,06,22,00,01,18.70
2015,06,22,00,02,18.60
2015,06,22,00,03,18.60
2015,06,22,00,04,18.60
2015,06,22,00,05,18.60
2015,06,22,00,06,18.60
2015,06,22,00,07,18.60
2015,06,22,00,08,18.60
2015,06,22,00,09,18.60
2015,06,22,00,10,18.60
2015,06,22,00,11,18.60
2015,06,22,00,12,18.60
2015,06,22,00,13,18.60
2015,06,22,00,14,18.60
2015,06,22,00,15,18.60
2015,06,22,00,16,18.60
2015,06,22,00,17,18.60
2015,06,22,00,18,18.60
2015,06,22,00,19,18.60
2015,06,22,00,20,18.60
2015,06,22,00,21,18.60
2015,06,22,00,22,18.60
2015,06,22,00,23,18.60
2015,06,22,00,24,18.60
2015,06,22,00,25,18.50
2015,06,22,00,26,18.60
2015,06,22,00,27,18.50
2015,06,22,00,28,18.50
2015,06,22,00,29,18.50
2015,06,22,00,30,18.50
2015,06,22,00,31,18.50
2015,06,22,00,32,18.50
2015,06,22,00,33,18.50
2015,06,22,00,34,18.50
2015,06,22,00,35,18.40
2015,06,22,00,36,18.40
2015,06,22,00,37,18.40
2015,06,22,00,38,18.30
2015,06,22,00,39,18.30
2015,06,22,00,40,18.30
2015,06,22,00,41,18.20
2015,06,22,00,42,18.10
2015,06,22,00,43,18.10
2015,06,22,00,44,17.90
2015,06,22,00,45,17.80
2015,06,22,00,46,17.80
2015,06,22,00,47,17.80
2015,06,22,00,48,17.70
2015,06,22,00,49,17.70
2015,06,22,00,50,17.60
2015,06,22,00,51,17.50
2015,06,22,00,52,17.50
2015,06,22,00,53,17.40
2015,06,22,00,54,17.30
2015,06,22,00,55,17.30
2015,06,22,00,56,17.20
2015,06,22,00,57,17.20
2015,06,22,00,58,17.10
2015,06,22,00,59,17.10
2015,06,22,01,00,17.10
2015,06,22,01,01,17.00
2015,06,22,01,02,17.00
2015,06,22,01,03,17.00
2015,06,22,01,04,16.90
2015,06,22,01,05,16.80
2015,06,22,01,06,16.80
2015,06,22,01,07,16.90
2015,06,22,01,08,16.90
2015,06,22,01,09,17.00
2015,06,22,01,10,17.00
2015,06,22,01,11,17.10
2015,06,22,01,12,17.10
2015,06,22,01,13,17.10
2015,06,22,01,14,17.10
2015,06,22,01,15,17.00
2015,06,22,01,16,17.00
2015,06,22,01,17,16.90
2015,06,22,01,18,16.90
2015,06,22,01,19,16.90
2015,06,22,01,20,16.90
2015,06,22,01,21,16.90
2015,06,22,01,22,16.90
2015,06,22,01,23,16.90
2015,06,22,01,24,16.90
2015,06,22,01,25,16.90
2015,06,22,01,26,16.90
2015,06,22,01,27,16.90
2015,06,22,01,28,16.90
2015,06,22,01,29,16.90
2015,06,22,01,30,16.90
2015,06,22,01,31,16.90
2015,06,22,01,32,17.00
2015,06,22,01,33,17.00
2015,06,22,01,34,16.90
2015,06,22,01,35,16.90
2015,06,22,01,36,16.90
2015,06,22,01,37,16.90
2015,06,22,01,38,16.80
2015,06,22,01,39,16.80
2015,06,22,01,40,16.70
2015,06,22,01,41,16.60
2015,06,22,01,42,16.60
2015,06,22,01,43,16.50
2015,06,22,01,44,16.50
2015,06,22,01,45,16.50
2015,06,22,01,46,16.40
2015,06,22,01,47,16.40
2015,06,22,01,48,16.30
2015,06,22,01,49,16.30
2015,06,22,01,50,16.30
2015,06,22,01,51,16.30
2015,06,22,01,52,16.30
2015,06,22,01,53,16.30
2015,06,22,01,54,16.30
2015,06,22,01,55,16.30
2015,06,22,01,56,16.30
2015,06,22,01,57,16.30
2015,06,22,01,58,16.30
2015,06,22,01,59,16.30
2015,06,22,02,00,16.40
2015,06,22,02,01,16.40
2015,06,22,02,02,16.50
2015,06,22,02,03,16.50
2015,06,22,02,04,16.50
2015,06,22,02,05,16.50
2015,06,22,02,06,16.50
2015,06,22,02,07,16.50
2015,06,22,02,08,16.50
2015,06,22,02,09,16.40
2015,06,22,02,10,16.40
2015,06,22,02,11,16.30
2015,06,22,02,12,16.30
2015,06,22,02,13,16.30
2015,06,22,02,14,16.30
2015,06,22,02,15,16.20
2015,06,22,02,16,16.20
2015,06,22,02,17,16.20
2015,06,22,02,18,16.20
2015,06,22,02,19,16.20
2015,06,22,02,20,16.10
2015,06,22,02,21,16.10
2015,06,22,02,22,16.10
2015,06,22,02,23,16.10
2015,06,22,02,24,16.10
2015,06,22,02,25,16.00
2015,06,22,02,26,16.00
2015,06,22,02,27,15.90
2015,06,22,02,28,15.90
2015,06,22,02,29,15.80
2015,06,22,02,30,15.80
2015,06,22,02,31,15.80
2015,06,22,02,32,15.70
2015,06,22,02,33,15.70
2015,06,22,02,34,15.70
2015,06,22,02,35,15.70
2015,06,22,02,36,15.60
2015,06,22,02,37,15.60
2015,06,22,02,38,15.60
2015,06,22,02,39,15.60
2015,06,22,02,40,15.60
2015,06,22,02,41,15.60
2015,06,22,02,42,15.60
2015,06,22,02,43,15.60
2015,06,22,02,44,15.60
2015,06,22,02,45,15.50
2015,06,22,02,46,15.50
2015,06,22,02,47,15.50
2015,06,22,02,48,15.50
2015,06,22,02,49,15.50
2015,06,22,02,50,15.50
2015,06,22,02,51,15.50
2015,06,22,02,52,15.50
2015,06,22,02,53,15.40
2015,06,22,02,54,15.40
2015,06,22,02,55,15.40
2015,06,22,02,56,15.40
2015,06,22,02,57,15.40
2015,06,22,02,58,15.40
2015,06,22,02,59,15.40
2015,06,22,03,00,15.30
2015,06,22,03,01,15.30
2015,06,22,03,02,15.30
2015,06,22,03,03,15.30
2015,06,22,03,04,15.20
2015,06,22,03,05,15.20
2015,06,22,03,06,15.10
2015,06,22,03,07,15.10
2015,06,22,03,08,15.10
2015,06,22,03,09,15.10
2015,06,22,03,10,15.10
2015,06,22,03,11,15.10
2015,06,22,03,12,15.00
2015,06,22,03,13,15.00
2015,06,22,03,14,15.00
2015,06,22,03,15,15.00
2015,06,22,03,16,15.00
2015,06,22,03,17,15.00
2015,06,22,03,18,15.00
2015,06,22,03,19,15.10
2015,06,22,03,20,15.10
2015,06,22,03,21,15.20
2015,06,22,03,22,15.20
2015,06,22,03,23,15.20
2015,06,22,03,24,15.20
2015,06,22,03,25,15.20
2015,06,22,03,26,15.30
2015,06,22,03,27,15.30
2015,06,22,03,28,15.30
2015,06,22,03,29,15.30
2015,06,22,03,30,15.30
2015,06,22,03,31,15.40
2015,06,22,03,32,15.40
2015,06,22,03,33,15.40
2015,06,22,03,34,15.40
2015,06,22,03,35,15.40
2015,06,22,03,36,15.40
2015,06,22,03,37,15.40
2015,06,22,03,38,15.40
2015,06,22,03,39,15.30
2015,06,22,03,40,15.30
2015,06,22,03,41,15.30
2015,06,22,03,42,15.30
2015,06,22,03,43,15.30
2015,06,22,03,44,15.20
2015,06,22,03,45,15.20
2015,06,22,03,46,15.20
2015,06,22,03,47,15.10
2015,06,22,03,48,15.10
2015,06,22,03,49,15.00
2015,06,22,03,50,15.00
2015,06,22,03,51,15.00
2015,06,22,03,52,15.00
2015,06,22,03,53,15.00
2015,06,22,03,54,15.00
2015,06,22,03,55,14.90
2015,06,22,03,56,14.90
2015,06,22,03,57,14.80
2015,06,22,03,58,14.80
2015,06,22,03,59,14.80
2015,06,22,04,00,14.70
2015,06,22,04,01,14.70
2015,06,22,04,02,14.70
2015,06,22,04,03,14.70
2015,06,22,04,04,14.70
2015,06,22,04,05,14.70
2015,06,22,04,06,14.70
2015,06,22,04,07,14.70
2015,06,22,04,08,14.70
2015,06,22,04,09,14.80
2015,06,22,04,10,14.80
2015,06,22,04,11,14.80
2015,06,22,04,12,14.80
2015,06,22,04,13,14.80
2015,06,22,04,14,14.80
2015,06,22,04,15,14.80
2015,06,22,04,16,14.80
2015,06,22,04,17,14.80
2015,06,22,04,18,14.80
2015,06,22,04,19,14.70
2015,06,22,04,20,14.70
2015,06,22,04,21,14.70
2015,06,22,04,22,14.70
2015,06,22,04,23,14.70
2015,06,22,04,24,14.70
2015,06,22,04,25,14.60
2015,06,22,04,26,14.60
2015,06,22,04,27,14.50
2015,06,22,04,28,14.50
2015,06,22,04,29,14.40
2015,06,22,04,30,14.40
2015,06,22,04,31,14.40
2015,06,22,04,32,14.40
2015,06,22,04,33,14.30
2015,06,22,04,34,14.30
2015,06,22,04,35,14.30
2015,06,22,04,36,14.30
2015,06,22,04,37,14.30
2015,06,22,04,38,14.30
2015,06,22,04,39,14.20
2015,06,22,04,40,14.20
2015,06,22,04,41,14.10
2015,06,22,04,42,14.10
2015,06,22,04,43,14.10
2015,06,22,04,44,14.00
2015,06,22,04,45,14.00
2015,06,22,04,46,13.90
2015,06,22,04,47,13.90
2015,06,22,04,48,13.90
2015,06,22,04,49,13.90
2015,06,22,04,50,13.90
2015,06,22,04,51,13.80
2015,06,22,04,52,13.80
2015,06,22,04,53,13.80
2015,06,22,04,54,13.80
2015,06,22,04,55,13.80
2015,06,22,04,56,13.80
2015,06,22,04,57,13.80
2015,06,22,04,58,13.80
2015,06,22,04,59,13.80
2015,06,22,05,00,13.80
2015,06,22,05,01,13.80
2015,06,22,05,02,13.80
2015,06,22,05,03,13.80
2015,06,22,05,04,13.80
2015,06,22,05,05,13.80
2015,06,22,05,06,13.80
2015,06,22,05,07,13.80
2015,06,22,05,08,13.70
2015,06,22,05,09,13.70
2015,06,22,05,10,13.70
2015,06,22,05,11,13.70
2015,06,22,05,12,13.70
2015,06,22,05,13,13.70
2015,06,22,05,14,13.70
2015,06,22,05,15,13.70
2015,06,22,05,16,13.70
2015,06,22,05,17,13.70
2015,06,22,05,18,13.70
2015,06,22,05,19,13.80
2015,06,22,05,20,13.80
2015,06,22,05,21,13.80
2015,06,22,05,22,13.80
2015,06,22,05,23,13.80
2015,06,22,05,24,13.80
2015,06,22,05,25,13.80
2015,06,22,05,26,13.80
2015,06,22,05,27,13.80
2015,06,22,05,28,13.80
2015,06,22,05,29,13.80
2015,06,22,05,30,13.80
2015,06,22,05,31,13.80
2015,06,22,05,32,13.80
2015,06,22,05,33,13.80
2015,06,22,05,34,13.80
2015,06,22,05,35,13.80
2015,06,22,05,36,13.80
2015,06,22,05,37,13.80
2015,06,22,05,38,13.70
2015,06,22,05,39,13.70
2015,06,22,05,40,13.70
2015,06,22,05,41,13.70
2015,06,22,05,42,13.70
2015,06,22,05,43,13.70
2015,06,22,05,44,13.60
2015,06,22,05,45,13.60
2015,06,22,05,46,13.60
2015,06,22,05,47,13.60
2015,06,22,05,48,13.60
2015,06,22,05,49,13.60
2015,06,22,05,50,13.60
2015,06,22,05,51,13.50
2015,06,22,05,52,13.60
2015,06,22,05,53,13.60
2015,06,22,05,54,13.60
2015,06,22,05,55,13.60
2015,06,22,05,56,13.60
2015,06,22,05,57,13.60
2015,06,22,05,58,13.60
2015,06,22,05,59,13.60
2015,06,22,06,00,13.70
2015,06,22,06,01,13.70
2015,06,22,06,02,13.70
2015,06,22,06,03,13.70
2015,06,22,06,04,13.70
2015,06,22,06,05,13.70
2015,06,22,06,06,13.80
2015,06,22,06,07,13.80
2015,06,22,06,08,13.80
2015,06,22,06,09,13.80
2015,06,22,06,10,13.80
2015,06,22,06,11,13.90
2015,06,22,06,12,13.90
2015,06,22,06,13,13.90
2015,06,22,06,14,13.90
2015,06,22,06,15,14.00
2015,06,22,06,16,14.00
2015,06,22,06,17,14.00
2015,06,22,06,18,14.00
2015,06,22,06,19,14.00
2015,06,22,06,20,14.00
2015,06,22,06,21,14.00
2015,06,22,06,22,14.00
2015,06,22,06,23,14.00
2015,06,22,06,24,14.00
2015,06,22,06,25,14.00
2015,06,22,06,26,14.00
2015,06,22,06,27,14.00
2015,06,22,06,28,14.00
2015,06,22,06,29,14.00
2015,06,22,06,30,14.00
2015,06,22,06,31,14.00
2015,06,22,06,32,14.10
2015,06,22,06,33,14.10
2015,06,22,06,34,14.10
2015,06,22,06,35,14.10
2015,06,22,06,36,14.10
2015,06,22,06,37,14.10
2015,06,22,06,38,14.10
2015,06,22,06,39,14.10
2015,06,22,06,40,14.10
2015,06,22,06,41,14.00
2015,06,22,06,42,14.00
2015,06,22,06,43,14.00
2015,06,22,06,44,14.00
2015,06,22,06,45,14.00
2015,06,22,06,46,14.10
2015,06,22,06,47,14.10
2015,06,22,06,48,14.10
2015,06,22,06,49,14.10
2015,06,22,06,50,14.10
2015,06,22,06,51,14.10
2015,06,22,06,52,14.20
2015,06,22,06,53,14.20
2015,06,22,06,54,14.20
2015,06,22,06,55,14.20
2015,06,22,06,56,14.30
2015,06,22,06,57,14.30
2015,06,22,06,58,14.30
2015,06,22,06,59,14.30
2015,06,22,07,00,14.40
2015,06,22,07,01,14.40
2015,06,22,07,02,14.40
2015,06,22,07,03,14.50
2015,06,22,07,04,14.50
2015,06,22,07,05,14.50
2015,06,22,07,06,14.60
2015,06,22,07,07,14.60
2015,06,22,07,08,14.60
2015,06,22,07,09,14.60
2015,06,22,07,10,14.70
2015,06,22,07,11,14.70
2015,06,22,07,12,14.70
2015,06,22,07,13,14.70
2015,06,22,07,14,14.70
2015,06,22,07,15,14.80
2015,06,22,07,16,14.80
2015,06,22,07,17,14.80
2015,06,22,07,18,14.80
2015,06,22,07,19,14.80
2015,06,22,07,20,14.90
2015,06,22,07,21,14.90
2015,06,22,07,22,15.00
2015,06,22,07,23,15.00
2015,06,22,07,24,15.00
2015,06,22,07,25,15.00
2015,06,22,07,26,15.00
2015,06,22,07,27,15.00
2015,06,22,07,28,15.00
2015,06,22,07,29,15.00
2015,06,22,07,30,15.00
2015,06,22,07,31,15.00
2015,06,22,07,32,15.00
2015,06,22,07,33,15.00
2015,06,22,07,34,15.00
2015,06,22,07,35,15.00
2015,06,22,07,36,15.00
2015,06,22,07,37,15.00
2015,06,22,07,38,15.10
2015,06,22,07,39,15.10
2015,06,22,07,40,15.20
2015,06,22,07,41,15.20
2015,06,22,07,42,15.20
2015,06,22,07,43,15.30
2015,06,22,07,44,15.30
2015,06,22,07,45,15.30
2015,06,22,07,46,15.40
2015,06,22,07,47,15.40
2015,06,22,07,48,15.40
2015,06,22,07,49,15.50
2015,06,22,07,50,15.60
2015,06,22,07,51,15.60
2015,06,22,07,52,15.60
2015,06,22,07,53,15.70
2015,06,22,07,54,15.70
2015,06,22,07,55,15.70
2015,06,22,07,56,15.80
2015,06,22,07,57,15.80
2015,06,22,07,58,15.90
2015,06,22,07,59,15.90
2015,06,22,08,00,15.90
2015,06,22,08,01,16.00
2015,06,22,08,02,16.00
2015,06,22,08,03,16.10
2015,06,22,08,04,16.10
2015,06,22,08,05,16.20
2015,06,22,08,06,16.20
2015,06,22,08,07,16.20
2015,06,22,08,08,16.30
2015,06,22,08,09,16.30
2015,06,22,08,10,16.30
2015,06,22,08,11,16.40
2015,06,22,08,12,16.40
2015,06,22,08,13,16.50
2015,06,22,08,14,16.50
2015,06,22,08,15,16.60
2015,06,22,08,16,16.60
2015,06,22,08,17,16.70
2015,06,22,08,18,16.70
2015,06,22,08,19,16.80
2015,06,22,08,20,16.80
2015,06,22,08,21,16.90
2015,06,22,08,22,16.90
2015,06,22,08,23,17.00
2015,06,22,08,24,17.00
2015,06,22,08,25,17.10
2015,06,22,08,26,17.10
2015,06,22,08,27,17.10
2015,06,22,08,28,17.20
2015,06,22,08,29,17.20
2015,06,22,08,30,17.20
2015,06,22,08,31,17.30
2015,06,22,08,32,17.30
2015,06,22,08,33,17.40
2015,06,22,08,34,17.50
2015,06,22,08,35,17.50
2015,06,22,08,36,17.60
2015,06,22,08,37,17.70
2015,06,22,08,38,17.70
2015,06,22,08,39,17.80
2015,06,22,08,40,17.80
2015,06,22,08,41,17.90
2015,06,22,08,42,17.90
2015,06,22,08,43,18.00
2015,06,22,08,44,18.00
2015,06,22,08,45,18.10
2015,06,22,08,46,18.20
2015,06,22,08,47,18.20
2015,06,22,08,48,18.30
2015,06,22,08,49,18.30
2015,06,22,08,50,18.30
2015,06,22,08,51,18.30
2015,06,22,08,52,18.40
2015,06,22,08,53,18.40
2015,06,22,08,54,18.40
2015,06,22,08,55,18.40
2015,06,22,08,56,18.40
2015,06,22,08,57,18.40
2015,06,22,08,58,18.40
2015,06,22,08,59,18.40
2015,06,22,09,00,18.40
2015,06,22,09,01,18.40
2015,06,22,09,02,18.40
2015,06,22,09,03,18.40
2015,06,22,09,04,18.40
2015,06,22,09,05,18.40
2015,06,22,09,06,18.50
2015,06,22,09,07,18.50
2015,06,22,09,08,18.50
2015,06,22,09,09,18.60
2015,06,22,09,10,18.60
2015,06,22,09,11,18.60
2015,06,22,09,12,18.60
2015,06,22,09,13,18.60
2015,06,22,09,14,18.60
2015,06,22,09,15,18.70
2015,06,22,09,16,18.70
2015,06,22,09,17,18.70
2015,06,22,09,18,18.70
2015,06,22,09,19,18.80
2015,06,22,09,20,18.90
2015,06,22,09,21,19.00
2015,06,22,09,22,19.10
2015,06,22,09,23,19.20
2015,06,22,09,24,19.30
2015,06,22,09,25,19.30
2015,06,22,09,26,19.40
2015,06,22,09,27,19.40
2015,06,22,09,28,19.40
2015,06,22,09,29,19.50
2015,06,22,09,30,19.50
2015,06,22,09,31,19.60
2015,06,22,09,32,19.60
2015,06,22,09,33,19.70
2015,06,22,09,34,19.70
2015,06,22,09,35,19.80
2015,06,22,09,36,19.90
2015,06,22,09,37,20.00
2015,06,22,09,38,20.20
2015,06,22,09,39,20.20
2015,06,22,09,40,20.30
2015,06,22,09,41,20.30
2015,06,22,09,42,20.30
2015,06,22,09,43,20.30
2015,06,22,09,44,20.40
2015,06,22,09,45,20.40
2015,06,22,09,46,20.50
2015,06,22,09,47,20.50
2015,06,22,09,48,20.60
2015,06,22,09,49,20.70
2015,06,22,09,50,20.80
2015,06,22,09,51,20.80
2015,06,22,09,52,20.90
2015,06,22,09,53,20.90
2015,06,22,09,54,21.00
2015,06,22,09,55,21.00
2015,06,22,09,56,21.10
2015,06,22,09,57,21.10
2015,06,22,09,58,21.10
2015,06,22,09,59,21.10
2015,06,22,10,00,21.10
2015,06,22,10,01,21.20
2015,06,22,10,02,21.20
2015,06,22,10,03,21.20
2015,06,22,10,04,21.10
2015,06,22,10,05,21.00
2015,06,22,10,06,20.90
2015,06,22,10,07,20.90
2015,06,22,10,08,20.80
2015,06,22,10,09,20.70
2015,06,22,10,10,20.70
2015,06,22,10,11,20.60
2015,06,22,10,12,20.60
2015,06,22,10,13,20.50
2015,06,22,10,14,20.50
2015,06,22,10,15,20.40
2015,06,22,10,16,20.40
2015,06,22,10,17,20.50
2015,06,22,10,18,20.50
2015,06,22,10,19,20.60
2015,06,22,10,20,20.60
2015,06,22,10,21,20.60
2015,06,22,10,22,20.60
2015,06,22,10,23,20.70
2015,06,22,10,24,20.70
2015,06,22,10,25,20.80
2015,06,22,10,26,20.90
2015,06,22,10,27,21.00
2015,06,22,10,28,21.00
2015,06,22,10,29,21.10
2015,06,22,10,30,21.20
2015,06,22,10,31,21.20
2015,06,22,10,32,21.30
2015,06,22,10,33,21.40
2015,06,22,10,34,21.50
2015,06,22,10,35,21.60
2015,06,22,10,36,21.60
2015,06,22,10,37,21.60
2015,06,22,10,38,21.70
2015,06,22,10,39,21.70
2015,06,22,10,40,21.70
2015,06,22,10,41,21.70
2015,06,22,10,42,21.70
2015,06,22,10,43,21.70
2015,06,22,10,44,21.70
2015,06,22,10,45,21.70
2015,06,22,10,46,21.60
2015,06,22,10,47,21.60
2015,06,22,10,48,21.60
2015,06,22,10,49,21.70
2015,06,22,10,50,21.70
2015,06,22,10,51,21.70
2015,06,22,10,52,21.70
2015,06,22,10,53,21.70
2015,06,22,10,54,21.80
2015,06,22,10,55,21.80
2015,06,22,10,56,21.70
2015,06,22,10,57,21.70
2015,06,22,10,58,21.70
2015,06,22,10,59,21.70
2015,06,22,11,00,21.70
2015,06,22,11,01,21.70
2015,06,22,11,02,21.80
2015,06,22,11,03,21.80
2015,06,22,11,04,21.90
2015,06,22,11,05,22.00
2015,06,22,11,06,22.10
2015,06,22,11,07,22.20
2015,06,22,11,08,22.30
2015,06,22,11,09,22.40
2015,06,22,11,10,22.40
2015,06,22,11,11,22.40
2015,06,22,11,12,22.50
2015,06,22,11,13,22.50
2015,06,22,11,14,22.60
2015,06,22,11,15,22.60
2015,06,22,11,16,22.60
2015,06,22,11,17,22.70
2015,06,22,11,18,22.70
2015,06,22,11,19,22.70
2015,06,22,11,20,22.70
2015,06,22,11,21,22.80
2015,06,22,11,22,22.80
2015,06,22,11,23,22.80
2015,06,22,11,24,22.80
2015,06,22,11,25,22.80
2015,06,22,11,26,22.70
2015,06,22,11,27,22.70
2015,06,22,11,28,22.70
2015,06,22,11,29,22.60
2015,06,22,11,30,22.60
2015,06,22,11,31,22.60
2015,06,22,11,32,22.60
2015,06,22,11,33,22.60
2015,06,22,11,34,22.50
2015,06,22,11,35,22.40
2015,06,22,11,36,22.40
2015,06,22,11,37,22.50
2015,06,22,11,38,22.50
2015,06,22,11,39,22.60
2015,06,22,11,40,22.70
2015,06,22,11,41,22.80
2015,06,22,11,42,22.80
2015,06,22,11,43,22.90
2015,06,22,11,44,23.00
2015,06,22,11,45,23.00
2015,06,22,11,46,23.10
2015,06,22,11,47,23.10
2015,06,22,11,48,23.20
2015,06,22,11,49,23.20
2015,06,22,11,50,23.20
2015,06,22,11,51,23.20
2015,06,22,11,52,23.20
2015,06,22,11,53,23.20
2015,06,22,11,54,23.20
2015,06,22,11,55,23.20
2015,06,22,11,56,23.20
2015,06,22,11,57,23.30
2015,06,22,11,58,23.30
2015,06,22,11,59,23.30
2015,06,22,12,00,23.30
2015,06,22,12,01,23.30
2015,06,22,12,02,23.40
2015,06,22,12,03,23.50
2015,06,22,12,04,23.50
2015,06,22,12,05,23.50
2015,06,22,12,06,23.50
2015,06,22,12,07,23.50
2015,06,22,12,08,23.50
2015,06,22,12,09,23.50
2015,06,22,12,10,23.50
2015,06,22,12,11,23.50
2015,06,22,12,12,23.50
2015,06,22,12,13,23.60
2015,06,22,12,14,23.60
2015,06,22,12,15,23.60
2015,06,22,12,16,23.60
2015,06,22,12,17,23.50
2015,06,22,12,18,23.30
2015,06,22,12,19,23.20
2015,06,22,12,20,23.00
2015,06,22,12,21,22.90
2015,06,22,12,22,22.70
2015,06,22,12,23,22.70
2015,06,22,12,24,22.60
2015,06,22,12,25,22.50
2015,06,22,12,26,22.50
2015,06,22,12,27,22.50
2015,06,22,12,28,22.50
2015,06,22,12,29,22.50
2015,06,22,12,30,22.50
2015,06,22,12,31,22.60
2015,06,22,12,32,22.60
2015,06,22,12,33,22.60
2015,06,22,12,34,22.60
2015,06,22,12,35,22.60
2015,06,22,12,36,22.50
2015,06,22,12,37,22.50
2015,06,22,12,38,22.50
2015,06,22,12,39,22.40
2015,06,22,12,40,22.40
2015,06,22,12,41,22.50
2015,06,22,12,42,22.50
2015,06,22,12,43,22.50
2015,06,22,12,44,22.60
2015,06,22,12,45,22.60
2015,06,22,12,46,22.60
2015,06,22,12,47,22.70
2015,06,22,12,48,22.70
2015,06,22,12,49,22.70
2015,06,22,12,50,22.70
2015,06,22,12,51,22.70
2015,06,22,12,52,22.70
2015,06,22,12,53,22.70
2015,06,22,12,54,22.60
2015,06,22,12,55,22.60
2015,06,22,12,56,22.50
2015,06,22,12,57,22.50
2015,06,22,12,58,22.40
2015,06,22,12,59,22.50
2015,06,22,13,00,22.50
2015,06,22,13,01,22.60
2015,06,22,13,02,22.60
2015,06,22,13,03,22.60
2015,06,22,13,04,22.60
2015,06,22,13,05,22.60
2015,06,22,13,06,22.60
2015,06,22,13,07,22.60
2015,06,22,13,08,22.60
2015,06,22,13,09,22.60
2015,06,22,13,10,22.60
2015,06,22,13,11,22.60
2015,06,22,13,12,22.60
2015,06,22,13,13,22.60
2015,06,22,13,14,22.60
2015,06,22,13,15,22.60
2015,06,22,13,16,22.60
2015,06,22,13,17,22.70
2015,06,22,13,18,22.70
2015,06,22,13,19,22.70
2015,06,22,13,20,22.70
2015,06,22,13,21,22.70
2015,06,22,13,22,22.70
2015,06,22,13,23,22.70
2015,06,22,13,24,22.60
2015,06,22,13,25,22.70
2015,06,22,13,26,22.70
2015,06,22,13,27,22.70
2015,06,22,13,28,22.70
2015,06,22,13,29,22.80
2015,06,22,13,30,22.80
2015,06,22,13,31,22.80
2015,06,22,13,32,22.90
2015,06,22,13,33,23.00
2015,06,22,13,34,23.10
2015,06,22,13,35,23.20
2015,06,22,13,36,23.30
2015,06,22,13,37,23.30
2015,06,22,13,38,23.40
2015,06,22,13,39,23.40
2015,06,22,13,40,23.40
2015,06,22,13,41,23.40
2015,06,22,13,42,23.40
2015,06,22,13,43,23.40
2015,06,22,13,44,23.50
2015,06,22,13,45,23.50
2015,06,22,13,46,23.40
2015,06,22,13,47,23.40
2015,06,22,13,48,23.40
2015,06,22,13,49,23.40
2015,06,22,13,50,23.50
2015,06,22,13,51,23.50
2015,06,22,13,52,23.60
2015,06,22,13,53,23.70
2015,06,22,13,54,23.70
2015,06,22,13,55,23.80
2015,06,22,13,56,23.80
2015,06,22,13,57,23.90
2015,06,22,13,58,24.00
2015,06,22,13,59,24.10
2015,06,22,14,00,24.10
2015,06,22,14,01,24.20
2015,06,22,14,02,24.20
2015,06,22,14,03,24.10
2015,06,22,14,04,24.10
2015,06,22,14,05,24.20
2015,06,22,14,06,24.20
2015,06,22,14,07,24.20
2015,06,22,14,08,24.20
2015,06,22,14,09,24.20
2015,06,22,14,10,24.30
2015,06,22,14,11,24.30
2015,06,22,14,12,24.40
2015,06,22,14,13,24.40
2015,06,22,14,14,24.30
2015,06,22,14,15,24.20
2015,06,22,14,16,24.10
2015,06,22,14,17,24.00
2015,06,22,14,18,23.90
2015,06,22,14,19,23.90
2015,06,22,14,20,23.80
2015,06,22,14,21,23.70
2015,06,22,14,22,23.60
2015,06,22,14,23,23.50
2015,06,22,14,24,23.40
2015,06,22,14,25,23.40
2015,06,22,14,26,23.30
2015,06,22,14,27,23.30
2015,06,22,14,28,23.20
2015,06,22,14,29,23.10
2015,06,22,14,30,23.00
2015,06,22,14,31,23.00
2015,06,22,14,32,22.90
2015,06,22,14,33,22.90
2015,06,22,14,34,22.90
2015,06,22,14,35,22.90
2015,06,22,14,36,22.80
2015,06,22,14,37,22.80
2015,06,22,14,38,22.80
2015,06,22,14,39,22.80
2015,06,22,14,40,22.80
2015,06,22,14,41,22.80
2015,06,22,14,42,22.80
2015,06,22,14,43,22.90
2015,06,22,14,44,22.90
2015,06,22,14,45,22.80
2015,06,22,14,46,22.80
2015,06,22,14,47,22.80
2015,06,22,14,48,22.80
2015,06,22,14,49,22.80
2015,06,22,14,50,22.80
2015,06,22,14,51,22.70
2015,06,22,14,52,22.70
2015,06,22,14,53,22.60
2015,06,22,14,54,22.60
2015,06,22,14,55,22.60
2015,06,22,14,56,22.60
2015,06,22,14,57,22.60
2015,06,22,14,58,22.60
2015,06,22,14,59,22.60
2015,06,22,15,00,22.70
2015,06,22,15,01,22.70
2015,06,22,15,02,22.80
2015,06,22,15,03,22.80
2015,06,22,15,04,22.90
2015,06,22,15,05,23.00
2015,06,22,15,06,23.00
2015,06,22,15,07,23.00
2015,06,22,15,08,23.00
2015,06,22,15,09,23.00
2015,06,22,15,10,22.90
2015,06,22,15,11,22.90
2015,06,22,15,12,23.00
2015,06,22,15,13,23.00
2015,06,22,15,14,23.00
2015,06,22,15,15,23.00
2015,06,22,15,16,23.10
2015,06,22,15,17,23.00
2015,06,22,15,18,23.00
2015,06,22,15,19,22.90
2015,06,22,15,20,22.90
2015,06,22,15,21,22.80
2015,06,22,15,22,22.80
2015,06,22,15,23,22.70
2015,06,22,15,24,22.70
2015,06,22,15,25,22.70
2015,06,22,15,26,22.70
2015,06,22,15,27,22.70
2015,06,22,15,28,22.70
2015,06,22,15,29,22.70
2015,06,22,15,30,22.70
2015,06,22,15,31,22.70
2015,06,22,15,32,22.70
2015,06,22,15,33,22.70
2015,06,22,15,34,22.70
2015,06,22,15,35,22.70
2015,06,22,15,36,22.70
2015,06,22,15,37,22.70
2015,06,22,15,38,22.70
2015,06,22,15,39,22.70
2015,06,22,15,40,22.70
2015,06,22,15,41,22.70
2015,06,22,15,42,22.70
2015,06,22,15,43,22.70
2015,06,22,15,44,22.80
2015,06,22,15,45,22.80
2015,06,22,15,46,22.90
2015,06,22,15,47,23.00
2015,06,22,15,48,23.00
2015,06,22,15,49,23.10
2015,06,22,15,50,23.10
2015,06,22,15,51,23.20
2015,06,22,15,52,23.30
2015,06,22,15,53,23.50
2015,06,22,15,54,23.60
2015,06,22,15,55,23.70
2015,06,22,15,56,23.70
2015,06,22,15,57,23.70
2015,06,22,15,58,23.70
2015,06,22,15,59,23.70
2015,06,22,16,00,23.70
2015,06,22,16,01,23.80
2015,06,22,16,02,23.80
2015,06,22,16,03,23.80
2015,06,22,16,04,23.80
2015,06,22,16,05,23.70
2015,06,22,16,06,23.70
2015,06,22,16,07,23.60
2015,06,22,16,08,23.50
2015,06,22,16,09,23.40
2015,06,22,16,10,23.40
2015,06,22,16,11,23.30
2015,06,22,16,12,23.30
2015,06,22,16,13,23.30
2015,06,22,16,14,23.40
2015,06,22,16,15,23.40
2015,06,22,16,16,23.40
2015,06,22,16,17,23.40
2015,06,22,16,18,23.40
2015,06,22,16,19,23.40
2015,06,22,16,20,23.40
2015,06,22,16,21,23.40
2015,06,22,16,22,23.50
2015,06,22,16,23,23.50
2015,06,22,16,24,23.60
2015,06,22,16,25,23.70
2015,06,22,16,26,23.80
2015,06,22,16,27,23.80
2015,06,22,16,28,23.90
2015,06,22,16,29,24.00
2015,06,22,16,30,24.10
2015,06,22,16,31,24.10
2015,06,22,16,32,24.20
2015,06,22,16,33,24.30
2015,06,22,16,34,24.40
2015,06,22,16,35,24.50
2015,06,22,16,36,24.60
2015,06,22,16,37,24.70
2015,06,22,16,38,24.80
2015,06,22,16,39,24.80
2015,06,22,16,40,24.90
2015,06,22,16,41,24.90
2015,06,22,16,42,24.90
2015,06,22,16,43,25.00
2015,06,22,16,44,25.00
2015,06,22,16,45,25.00
2015,06,22,16,46,25.00
2015,06,22,16,47,25.10
2015,06,22,16,48,25.10
2015,06,22,16,49,25.10
2015,06,22,16,50,25.10
2015,06,22,16,51,25.20
2015,06,22,16,52,25.30
2015,06,22,16,53,25.40
2015,06,22,16,54,25.50
2015,06,22,16,55,25.60
2015,06,22,16,56,25.70
2015,06,22,16,57,25.80
2015,06,22,16,58,25.90
2015,06,22,16,59,25.90
2015,06,22,17,00,25.90
2015,06,22,17,01,25.90
2015,06,22,17,02,25.90
2015,06,22,17,03,25.80
2015,06,22,17,04,25.70
2015,06,22,17,05,25.60
2015,06,22,17,06,25.50
2015,06,22,17,07,25.50
2015,06,22,17,08,25.40
2015,06,22,17,09,25.40
2015,06,22,17,10,25.30
2015,06,22,17,11,25.20
2015,06,22,17,12,25.10
2015,06,22,17,13,25.10
2015,06,22,17,14,25.00
2015,06,22,17,15,25.00
2015,06,22,17,16,25.00
2015,06,22,17,17,25.00
2015,06,22,17,18,25.00
2015,06,22,17,19,25.00